When you browse on this site, cookies collect data to enhance your experience and personalize the content and advertising you see.
Visit our Privacy Policy to learn more. By continuing to use the site, you agree to this use of cookies and data.
  • In Hungary
  • List of Countries
  • For 7 days
  • Water Temperature
  • Satellite Maps
  • Weather Map
  • News
  • Weather Widgets
  • user-avatar
    Login

    Hourly Weather Tibissa

    Today, 22 March, Friday

    Time Temperature Precipitation Wind Pressure Humidity
    00:00 +5°C° 0.3 mm 3 mps 682 mmHg 91%
    01:00 +5°C° 0 mm 2 mps 682 mmHg 92%
    02:00 +5°C° 0.1 mm 2 mps 682 mmHg 93%
    03:00 +4°C° 0.1 mm 2 mps 682 mmHg 94%
    04:00 +4°C° 0.1 mm 2 mps 682 mmHg 95%
    05:00 +4°C° 0 mm 2 mps 683 mmHg 96%
    06:00 +4°C° 0 mm 2 mps 683 mmHg 96%
    07:00 +4°C° 0 mm 2 mps 683 mmHg 96%
    08:00 +5°C° 0 mm 2 mps 684 mmHg 91%
    09:00 +5°C° 0 mm 2 mps 684 mmHg 85%
    10:00 +6°C° 0 mm 2 mps 684 mmHg 80%
    11:00 +7°C° 0.1 mm 3 mps 684 mmHg 75%
    12:00 +8°C° 0.1 mm 3 mps 685 mmHg 70%
    13:00 +8°C° 0.1 mm 4 mps 685 mmHg 65%
    14:00 +8°C° 0.6 mm 4 mps 684 mmHg 65%
    15:00 +10°C° 0.6 mm 4 mps 684 mmHg 65%
    16:00 +10°C° 0.6 mm 4 mps 684 mmHg 64%
    17:00 +8°C° 0.7 mm 5 mps 684 mmHg 70%
    18:00 +7°C° 0.7 mm 5 mps 684 mmHg 76%
    19:00 +7°C° 0.7 mm 5 mps 684 mmHg 81%
    20:00 +6°C° 0.8 mm 4 mps 685 mmHg 84%
    21:00 +7°C° 0.8 mm 3 mps 685 mmHg 86%
    22:00 +7°C° 0.8 mm 3 mps 685 mmHg 89%
    23:00 +7°C° 0.4 mm 3 mps 685 mmHg 88%

    Tomorrow, 23 March, Saturday

    Time Temperature Precipitation Wind Pressure Humidity
    00:00 +6°C° 0.4 mm 2 mps 685 mmHg 87%
    01:00 +6°C° 0.4 mm 2 mps 685 mmHg 86%
    02:00 +5°C° 0 mm 3 mps 685 mmHg 88%
    03:00 +5°C° 0 mm 4 mps 685 mmHg 90%
    04:00 +3°C° 0 mm 5 mps 684 mmHg 92%
    05:00 +3°C° 0.1 mm 5 mps 684 mmHg 92%
    06:00 +5°C° 0.1 mm 4 mps 685 mmHg 91%
    07:00 +5°C° 0.1 mm 4 mps 685 mmHg 91%
    08:00 +5°C° 0.4 mm 4 mps 685 mmHg 91%
    09:00 +5°C° 0.4 mm 4 mps 686 mmHg 91%
    10:00 +5°C° 0.4 mm 4 mps 686 mmHg 91%
    11:00 +6°C° 0.4 mm 4 mps 686 mmHg 90%
    12:00 +6°C° 0.4 mm 4 mps 686 mmHg 89%
    13:00 +7°C° 0.4 mm 4 mps 686 mmHg 88%
    14:00 +7°C° 0.5 mm 5 mps 686 mmHg 90%
    15:00 +7°C° 0.5 mm 5 mps 686 mmHg 91%
    16:00 +7°C° 0.5 mm 5 mps 686 mmHg 92%
    17:00 +7°C° 0.4 mm 6 mps 686 mmHg 91%
    18:00 +7°C° 0.4 mm 6 mps 687 mmHg 91%
    19:00 +7°C° 0.4 mm 6 mps 687 mmHg 90%
    20:00 +6°C° 0 mm 5 mps 687 mmHg 92%
    21:00 +6°C° 0 mm 4 mps 688 mmHg 94%
    22:00 +5°C° 0 mm 3 mps 688 mmHg 97%
    23:00 +6°C° 0 mm 2 mps 688 mmHg 96%

    Day after tomorrow, 24 March, Sunday

    Time Temperature Precipitation Wind Pressure Humidity
    00:00 +6°C° 0 mm 2 mps 688 mmHg 96%
    01:00 +6°C° 0 mm 2 mps 688 mmHg 96%
    02:00 +5°C° 0 mm 2 mps 688 mmHg 96%
    03:00 +6°C° 0 mm 1 mps 688 mmHg 96%
    04:00 +6°C° 0 mm 1 mps 688 mmHg 97%
    05:00 +6°C° 0 mm 1 mps 688 mmHg 97%
    06:00 +6°C° 0 mm 1 mps 688 mmHg 96%
    07:00 +5°C° 0 mm 1 mps 688 mmHg 96%
    08:00 +7°C° 0 mm 1 mps 689 mmHg 86%
    09:00 +8°C° 0 mm 2 mps 689 mmHg 75%
    10:00 +10°C° 0 mm 2 mps 690 mmHg 64%
    11:00 +12°C° 0 mm 2 mps 690 mmHg 58%
    12:00 +13°C° 0 mm 1 mps 690 mmHg 51%
    13:00 +14°C° 0 mm 1 mps 690 mmHg 44%
    14:00 +15°C° 0 mm 1 mps 690 mmHg 42%
    15:00 +15°C° 0 mm 1 mps 689 mmHg 40%
    16:00 +15°C° 0 mm 1 mps 689 mmHg 38%
    17:00 +15°C° 0 mm 1 mps 689 mmHg 41%
    18:00 +14°C° 0 mm 1 mps 689 mmHg 44%
    19:00 +14°C° 0 mm 2 mps 689 mmHg 48%
    20:00 +13°C° 0 mm 2 mps 689 mmHg 52%
    21:00 +12°C° 0 mm 2 mps 689 mmHg 57%
    22:00 +10°C° 0 mm 2 mps 689 mmHg 62%
    23:00 +10°C° 0 mm 2 mps 689 mmHg 64%

    25 March, Monday

    Time Temperature Precipitation Wind Pressure Humidity
    00:00 +9°C° 0 mm 2 mps 689 mmHg 66%
    01:00 +9°C° 0 mm 2 mps 689 mmHg 68%
    02:00 +9°C° 0 mm 2 mps 689 mmHg 69%
    03:00 +8°C° 0 mm 2 mps 688 mmHg 70%
    04:00 +8°C° 0 mm 2 mps 688 mmHg 71%
    05:00 +8°C° 0 mm 2 mps 688 mmHg 71%
    06:00 +8°C° 0 mm 2 mps 688 mmHg 72%
    07:00 +8°C° 0 mm 2 mps 688 mmHg 72%
    08:00 +10°C° 0 mm 2 mps 689 mmHg 65%
    09:00 +12°C° 0 mm 2 mps 689 mmHg 57%
    10:00 +14°C° 0 mm 2 mps 690 mmHg 50%
    11:00 +14°C° 0 mm 3 mps 690 mmHg 47%
    12:00 +16°C° 0 mm 3 mps 689 mmHg 44%
    13:00 +17°C° 0 mm 3 mps 689 mmHg 41%
    14:00 +17°C° 0 mm 3 mps 689 mmHg 40%
    15:00 +18°C° 0 mm 4 mps 688 mmHg 39%
    16:00 +18°C° 0 mm 4 mps 688 mmHg 39%
    17:00 +17°C° 0 mm 4 mps 688 mmHg 45%
    18:00 +15°C° 0 mm 4 mps 687 mmHg 51%
    19:00 +14°C° 0 mm 4 mps 687 mmHg 57%
    20:00 +13°C° 0 mm 3 mps 687 mmHg 63%
    21:00 +13°C° 0 mm 2 mps 687 mmHg 70%
    22:00 +12°C° 0 mm 1 mps 688 mmHg 76%
    23:00 +11°C° 0 mm 1 mps 687 mmHg 78%

    26 March, Tuesday

    Time Temperature Precipitation Wind Pressure Humidity
    00:00 +11°C° 0 mm 1 mps 687 mmHg 79%
    01:00 +9°C° 0 mm 0 mps 687 mmHg 81%
    02:00 +9°C° 0 mm 0 mps 687 mmHg 81%
    03:00 +10°C° 0 mm 1 mps 686 mmHg 82%
    04:00 +10°C° 0 mm 1 mps 686 mmHg 83%
    05:00 +10°C° 0 mm 1 mps 686 mmHg 83%
    06:00 +10°C° 0 mm 1 mps 686 mmHg 83%
    07:00 +10°C° 0 mm 1 mps 686 mmHg 84%
    08:00 +12°C° 0 mm 2 mps 687 mmHg 73%
    09:00 +13°C° 0 mm 4 mps 687 mmHg 62%
    10:00 +14°C° 0 mm 5 mps 688 mmHg 51%
    11:00 +15°C° 0 mm 5 mps 688 mmHg 45%
    12:00 +16°C° 0 mm 5 mps 688 mmHg 40%
    13:00 +17°C° 0 mm 6 mps 688 mmHg 34%
    14:00 +17°C° 0 mm 6 mps 688 mmHg 34%
    15:00 +17°C° 0 mm 5 mps 688 mmHg 33%
    16:00 +17°C° 0 mm 5 mps 688 mmHg 32%
    17:00 +16°C° 0 mm 5 mps 688 mmHg 39%
    18:00 +14°C° 0 mm 5 mps 688 mmHg 46%
    19:00 +13°C° 0 mm 5 mps 687 mmHg 53%
    20:00 +12°C° 0 mm 4 mps 688 mmHg 61%
    21:00 +11°C° 0 mm 4 mps 688 mmHg 69%
    22:00 +9°C° 0 mm 3 mps 689 mmHg 77%
    23:00 +9°C° 0 mm 3 mps 689 mmHg 78%

    27 March, Wednesday

    Time Temperature Precipitation Wind Pressure Humidity
    00:00 +8°C° 0 mm 3 mps 689 mmHg 80%
    01:00 +7°C° 0 mm 3 mps 689 mmHg 81%
    02:00 +7°C° 0 mm 3 mps 689 mmHg 85%
    03:00 +5°C° 0 mm 3 mps 689 mmHg 89%
    04:00 +5°C° 0 mm 3 mps 689 mmHg 92%
    05:00 +4°C° 0 mm 3 mps 689 mmHg 91%
    06:00 +4°C° 0 mm 3 mps 690 mmHg 89%
    07:00 +4°C° 0 mm 2 mps 690 mmHg 87%
    08:00 +5°C° 0 mm 3 mps 690 mmHg 71%
    09:00 +8°C° 0 mm 3 mps 691 mmHg 56%
    10:00 +8°C° 0 mm 4 mps 691 mmHg 40%
    11:00 +11°C° 0 mm 4 mps 691 mmHg 35%
    12:00 +12°C° 0 mm 4 mps 691 mmHg 31%
    13:00 +13°C° 0 mm 4 mps 691 mmHg 27%
    14:00 +13°C° 0 mm 5 mps 691 mmHg 28%
    15:00 +14°C° 0 mm 5 mps 691 mmHg 28%
    16:00 +14°C° 0 mm 5 mps 690 mmHg 29%
    17:00 +13°C° 0 mm 4 mps 690 mmHg 36%
    18:00 +11°C° 0 mm 4 mps 690 mmHg 44%
    19:00 +10°C° 0 mm 3 mps 690 mmHg 51%
    20:00 +9°C° 0 mm 3 mps 691 mmHg 57%
    21:00 +8°C° 0 mm 2 mps 691 mmHg 63%
    22:00 +9°C° 0 mm 1 mps 691 mmHg 70%
    23:00 +8°C° 0 mm 1 mps 691 mmHg 72%
    Show more